Meppen Air Base

ETWM · Basse-Saxe, Allemagne

7 octobre 2022

Temps Code Temps Temp. Vue Base cloud Vent METAR/SPECI
09:20
V
10 °C 10 km+ - 200° 200° 7 kt METAR ETWM 070720Z 20007KT 9999 FEW040 10/07 Q1023 BLU+
08:20
V
9 °C 10 km+ - 180° 180° 5 kt METAR ETWM 070620Z 18005KT 9999 FEW240 09/07 Q1023 BLU+
07:20
V
8 °C 10 km+ - 170° 170° 4 kt METAR ETWM 070520Z 17004KT 9999 FEW340 08/06 Q1023 BLU+
06:20
V
8 °C 10 km+ - 180° 180° 4 kt METAR ETWM 070420Z 18004KT 9999 FEW340 08/06 Q1024 BLU+
05:20
L
8 °C 0 m - 180° 180° 4 kt METAR ETWM 070320Z AUTO 18004KT //// // ////// 08/06 Q1024 ///
04:20
L
9 °C 0 m - 180° 180° 6 kt METAR ETWM 070220Z AUTO 18006KT //// // ////// 09/06 Q1025 ///
03:20
L
10 °C 0 m - 190° 190° 4 kt METAR ETWM 070120Z AUTO 19004KT //// // ////// 10/06 Q1026 ///
02:20
L
10 °C 0 m - 200° 200° 4 kt METAR ETWM 070020Z AUTO 20004KT //// // ////// 10/06 Q1026 ///
01:20
L
9 °C 0 m - 200° 200° 3 kt METAR ETWM 062320Z AUTO 20003KT //// // ////// 09/07 Q1027 ///
00:20
L
9 °C 0 m - Var Var 3 kt METAR ETWM 062220Z AUTO VRB03KT //// // ////// 09/07 Q1027 ///

6 octobre 2022

Temps Code Temps Temp. Vue Base cloud Vent METAR/SPECI
23:20
L
9 °C 0 m - Var Var 3 kt METAR ETWM 062120Z AUTO VRB03KT //// // ////// 09/07 Q1028 ///
22:20
L
9 °C 0 m - 220° 220° 2 kt METAR ETWM 062020Z AUTO 22002KT //// // ////// 09/07 Q1028 ///
21:20
L
11 °C 0 m - Var Var 3 kt METAR ETWM 061920Z AUTO VRB03KT //// // ////// 11/07 Q1028 ///
20:20
L
12 °C 0 m - 200° 200° 3 kt METAR ETWM 061820Z AUTO 20003KT //// // ////// 12/08 Q1028 ///
19:20
L
13 °C 0 m - Var Var 3 kt METAR ETWM 061720Z AUTO VRB03KT //// // ////// 13/08 Q1028 ///
18:20
L
15 °C 0 m - 220° 220° 4 kt METAR ETWM 061620Z AUTO 22004KT //// // ////// 15/07 Q1028 ///
17:20
L
16 °C 0 m - 230° 230° 7 kt METAR ETWM 061520Z AUTO 23007KT //// // ////// 16/07 Q1028 ///
16:20
L
17 °C 0 m - 220° 220° 9 kt METAR ETWM 061420Z AUTO 22009KT //// // ////// 17/06 Q1028 ///
15:20
L
17 °C 0 m - 240° 240° 7 kt METAR ETWM 061320Z AUTO 24007KT //// // ////// 17/07 Q1028 ///
14:20
V
16 °C 10 km+ - 240° 240° 9 kt METAR ETWM 061220Z 24009KT 9999 FEW037 16/07 Q1028 BLU+
13:20
V
16 °C 10 km+ - 240° 240° 9 - 20 kt METAR ETWM 061120Z 24009G20KT 9999 FEW034 16/07 Q1028 BLU+
12:20
V
15 °C 10 km+ - 230° 230° 10 kt METAR ETWM 061020Z 23010KT 9999 FEW028 15/08 Q1027 BLU+
11:20
V
15 °C 10 km+ - 240° 240° 10 - 21 kt METAR ETWM 060920Z 24010G21KT 9999 FEW022 15/08 Q1027 BLU+
10:20
V
14 °C 10 km+ - 230° 230° 8 - 18 kt METAR ETWM 060820Z 23008G18KT 9999 FEW240 14/08 Q1026 BLU+
09:20
V
12 °C 10 km+ - 230° 230° 8 kt METAR ETWM 060720Z 23008KT 9999 FEW240 12/08 Q1025 BLU+
08:20
V
11 °C 10 km+ - 220° 220° 6 kt METAR ETWM 060620Z 22006KT 9999 FEW025 11/08 Q1024 BLU+
07:20
V
11 °C 10 km+ - 230° 230° 7 - 17 kt METAR ETWM 060520Z 23007G17KT 9999 FEW025 11/08 Q1023 BLU+
06:20
V
12 °C 10 km+ - 230° 230° 6 kt METAR ETWM 060420Z 23006KT 9999 FEW025 12/08 Q1022 BLU+
05:20
L
12 °C 0 m - 240° 240° 8 kt METAR ETWM 060320Z AUTO 24008KT //// // ////// 12/09 Q1021 ///
04:20
L
12 °C 0 m - 220° 220° 6 kt METAR ETWM 060220Z AUTO 22006KT //// // ////// 12/10 Q1020 ///
03:20
L
13 °C 0 m - 240° 240° 8 kt METAR ETWM 060120Z AUTO 24008KT //// // ////// 13/10 Q1019 ///
02:20
L
13 °C 0 m - 220° 220° 7 kt METAR ETWM 060020Z AUTO 22007KT //// // ////// 13/11 Q1018 ///
01:20
L
14 °C 0 m - 230° 230° 7 kt METAR ETWM 052320Z AUTO 23007KT //// // ////// 14/11 Q1017 ///
00:20
L
14 °C 0 m - 240° 240° 8 kt METAR ETWM 052220Z AUTO 24008KT //// // ////// 14/11 Q1016 ///

5 octobre 2022

Temps Code Temps Temp. Vue Base cloud Vent METAR/SPECI
23:20
L
14 °C 0 m - 260° 260° 12 - 27 kt METAR ETWM 052120Z AUTO 26012G27KT //// // ////// 14/12 Q1015 ///
22:20
L
17 °C 0 m - 220° 220° 11 - 23 kt METAR ETWM 052020Z AUTO 22011G23KT //// // ////// 17/11 Q1013 ///
21:20
L
17 °C 0 m - 210° 210° 9 kt METAR ETWM 051920Z AUTO 21009KT //// // ////// 17/10 Q1013 ///
20:20
L
18 °C 0 m - 220° 220° 11 - 22 kt METAR ETWM 051820Z AUTO 22011G22KT //// // ////// 18/11 Q1013 ///
19:20
L
18 °C 0 m - 230° 230° 8 kt METAR ETWM 051720Z AUTO 23008KT //// // ////// 18/13 Q1012 ///
18:20
L
19 °C 0 m - 200° 200° 5 kt METAR ETWM 051620Z AUTO 20005KT //// // ////// 19/13 Q1011 ///
17:20
L
19 °C 0 m - 210° 210° 7 kt METAR ETWM 051520Z AUTO 21007KT //// // ////// 19/12 Q1011 ///
16:20
V
19 °C 10 km+ 3.500 ft 200° 200° 9 kt METAR ETWM 051420Z 20009KT 9999 FEW027 BKN035 19/12 Q1011 BLU
15:20
M
18 °C 10 km+ 2.900 ft 210° 210° 9 - 19 kt METAR ETWM 051320Z 21009G19KT 9999 BKN029 18/12 Q1012 BLU
14:20
M
18 °C 10 km+ 2.700 ft 220° 220° 11 - 22 kt METAR ETWM 051220Z 22011G22KT 9999 BKN027 18/11 Q1012 BLU
13:20
M
17 °C 10 km+ 2.500 ft 210° 210° 10 - 23 kt METAR ETWM 051120Z 21010G23KT 9999 BKN025 17/11 Q1013 BLU
12:20
M
16 °C 10 km+ 2.500 ft 210° 210° 11 - 24 kt METAR ETWM 051020Z 21011G24KT 9999 BKN025 16/10 Q1013 BLU
11:20
M
16 °C 10 km+ 2.800 ft 200° 200° 11 - 22 kt METAR ETWM 050920Z 20011G22KT 9999 FEW020 BKN028 16/11 Q1014 BLU
Données plus anciennes

Nous et des tiers suivons ton comportement sur Internet sur notre site Web à l'aide de cookies. Si tu continues, nous supposons que tu acceptes notre politique en matière de cookies. Apprendre plus